Location: Gleizolles
(44.4833°N, 6.7667°E)
Time: 20:31:20
(UTC+00:00)

A-11 Canister half - Pass Details

Date: 29 June 2024
Orbit: 1524 x 1684 km, 47.3° (Epoch: 18 July)

Event Time Altitude Azimuth Distance (km) Brightness Sun altitude
Rises 15:15:45 0° 290° (WNW) 4,708 12.3 40.8°
Reaches altitude 10° 15:18:48 10° 289° (WNW) 3,712 12.0 40.3°
Maximum altitude 15:28:09 82° 204° (SSW) 1,538 9.8 38.6°
Drops below altitude 10° 15:37:28 10° 118° (ESE) 3,697 10.7 37.0°
Sets 15:40:30 0° 118° (ESE) 4,689 11.1 36.4°
